Location: Budapest
(47.4979°N, 19.0402°E)
Time: 12:10:21
(UTC+02:00)

Tiangong 2 - Pass Details

Date: 15 October 2017
Orbit: 388 x 391 km, 42.8° (Epoch: 21 October)

Event Time Altitude Azimuth Distance (km) Brightness Sun altitude
Exits shadow 05:26:29 32° 204° (SSW) 691 2.0 -17.0°
Maximum altitude 05:26:59 35° 182° (S) 655 2.1 -16.9°
Drops below altitude 10° 05:29:57 10° 114° (ESE) 1,421 4.9 -16.4°
Sets 05:32:07 0° 105° (ESE) 2,276 6.3 -16.0°
